Clarksville, TN

4:58 AM CDT on April 25, 2018 (GMT -0500)
Outlaw

Weather History for KCKV - February, 2012

Change the Weather History Date:

Friday, February 3, 2012

  Actual Average Record
Temperature  
Mean Temperature 50 °F 37 °F  
Max Temperature 61 °F 47 °F 72 °F (1986)
Min Temperature 38 °F 27 °F -4 °F (1970)
Degree Days  
Heating Degree Days 15    
Month to date heating degree days 35  
Since 1 July heating degree days  
Cooling Degree Days 0    
Month to date cooling degree days 0  
Year to date cooling degree days  
Moisture  
Dew Point 38 °F    
Average Humidity 64    
Maximum Humidity 85    
Minimum Humidity 42    
Precipitation  
Precipitation T in 0.17 in 2.30 in (1990)
Month to date precipitation 0.21 0.50  
Year to date precipitation 3.81  
Sea Level Pressure  
Sea Level Pressure 30.27 in    
Wind  
Wind Speed 7 mph (ESE)    
Max Wind Speed 13 mph    
Max Gust Speed 17 mph    
Visibility 10 miles    
Events      
T = Trace of Precipitation, MM = Missing Value Source: NWS Daily Summary

Daily Weather History Graph

Daily Weather History Graph

Search for Another Location

Airport or City:

Astronomy

Feb. 03, 2012 Rise Set
Actual Time 6:50 AM CST 5:17 PM CST
Civil Twilight 6:23 AM CST 5:44 PM CST
Nautical Twilight 5:52 AM CST 6:15 PM CST
Astronomical Twilight 5:21 AM CST 6:45 PM CST
Moon 1:21 PM CST (2/3) 3:22 AM CST (2/3)
Length of Visible Light 11h 21m
Length of Day
10h 26m
Waxing Gibbous, 82% of the Moon is Illuminated
Feb 3
Waxing Gibbous
Feb 7
Full
Feb 14
Last Quarter
Feb 21
New
Feb 29
First Quarter

Hourly Weather History & Observations

Time (CST) Temp. Windchill Dew Point Humidity Pressure Visibility Wind Dir Wind Speed Gust Speed Precip Events Conditions
12:52 AM 41.0 °F 39.0 °F 32.0 °F 70% 30.33 in 10.0 mi East 3.5 mph - N/A   Clear
1:52 AM 41.0 °F 36.4 °F 32.0 °F 70% 30.33 in 10.0 mi ENE 6.9 mph - N/A   Clear
2:52 AM 39.9 °F 35.1 °F 32.0 °F 73% 30.33 in 10.0 mi East 6.9 mph - N/A   Clear
3:52 AM 39.9 °F 37.8 °F 33.1 °F 77% 30.33 in 10.0 mi ENE 3.5 mph - N/A   Clear
4:52 AM 37.9 °F 32.7 °F 33.1 °F 83% 30.32 in 10.0 mi East 6.9 mph - N/A   Clear
5:52 AM 39.0 °F 34.0 °F 34.0 °F 82% 30.33 in 10.0 mi ENE 6.9 mph - N/A   Clear
6:52 AM 41.0 °F 34.3 °F 35.1 °F 79% 30.34 in 10.0 mi ENE 11.5 mph - N/A   Clear
7:52 AM 43.0 °F 38.2 °F 37.0 °F 80% 30.33 in 10.0 mi East 8.1 mph - N/A   Clear
8:52 AM 48.0 °F - 37.9 °F 68% 30.33 in 10.0 mi ESE 9.2 mph - N/A   Clear
9:52 AM 50.0 °F - 37.9 °F 63% 30.32 in 10.0 mi ESE 11.5 mph - N/A   Clear
10:52 AM 53.1 °F - 37.9 °F 57% 30.32 in 10.0 mi ESE 9.2 mph - N/A   Clear
11:52 AM 55.9 °F - 37.9 °F 51% 30.29 in 10.0 mi SE 8.1 mph - N/A   Clear
12:52 PM 57.9 °F - 37.0 °F 46% 30.27 in 10.0 mi SSE 8.1 mph - N/A   Clear
1:52 PM 60.1 °F - 37.0 °F 42% 30.25 in 10.0 mi South 6.9 mph - N/A   Clear
2:52 PM 61.0 °F - 39.0 °F 44% 30.24 in 10.0 mi SSE 5.8 mph - N/A   Partly Cloudy
3:52 PM 61.0 °F - 39.0 °F 44% 30.24 in 10.0 mi South 4.6 mph - N/A   Mostly Cloudy
4:52 PM 59.0 °F - 39.9 °F 49% 30.24 in 10.0 mi SSE 4.6 mph - N/A   Overcast
5:52 PM 57.9 °F - 39.9 °F 51% 30.24 in 10.0 mi ESE 4.6 mph - N/A   Overcast
6:52 PM 55.0 °F - 39.9 °F 57% 30.23 in 10.0 mi SE 8.1 mph - N/A   Partly Cloudy
7:52 PM 55.9 °F - 39.9 °F 55% 30.21 in 10.0 mi SE 8.1 mph - N/A   Mostly Cloudy
8:52 PM 57.0 °F - 39.9 °F 53% 30.19 in 10.0 mi SE 10.4 mph - N/A   Overcast
9:52 PM 54.0 °F - 39.9 °F 59% 30.19 in 10.0 mi SE 5.8 mph - N/A   Overcast
10:29 PM 53.6 °F - 42.8 °F 67% 30.19 in 10.0 mi SE 4.6 mph - N/A   Overcast
10:52 PM 55.0 °F - 41.0 °F 59% 30.18 in 10.0 mi ESE 5.8 mph - N/A   Overcast
11:52 PM 52.0 °F - 46.0 °F 80% 30.17 in 9.0 mi SE 9.2 mph - 0.00 in   Overcast